STARLINK-38093, 69980

Orbit data source: Space-Track

STARLINK-38093, 69980 is a payload satellite owned by SpaceX/Seattle (US) in SSO that was launched on Sat, 11 Jul 2026 UTC via an FALCON 9 launch vehicle from the Air Force Western Test Range (AFWTR). Payload-class satellites include a variety of spacecraft equipped with specific instruments for various scientific and technological missions. These include communications satellites like Starlink; space stations such as the ISS; scientific satellites like the Hubble; Earth observation satellites from companies like Planet Labs, Umbra, and HawkEye 360; GPS; miniature CubeSats for education and research; and military/defense satellites.

Loading next visibility...
Identifier
69980, 2026-159F
Orbit
SSO
Country
Flag of USUS
Related business
Manufacturer
SpaceX/Seattle
Mission
Operational spacecraft
Bus & Motor
STARLINK V2MO, Unknown motor
Mass
575 kg wet, ~530 kg dry
Launch date (UTC)
2026-07-11 (2 months ago)
Launch vehicle
FALCON 9
Launch site
Air Force Western Test Range (AFWTR)
Object type
Payload
Rocket body
Debris
Shape & HBR
BOX + PAN, 17.7 m
Radar Cross Section
Large (>1 m²)

Expand to show TLE details & history
Last TLE update: 9 hours ago

TLE from 9 hours ago
0 STARLINK-38093
1 69980U 26159F   26264.58335648  .00007074  00000-0  22149-3 0  9996
2 69980  97.2832 106.5204 0001911  98.2256 186.0609 15.33408718  6003
Epoch: 2026-09-21T14:00Z
TLE epoch observation values (Epoch: 2026-09-21T14:00:01.999Z)
Latitude
-74.12268°
Longitude
-77.40659°
Altitude
494.063 km
Speed
7.616 km/s
True Right ascension
08h 52m 15s
True Declination
-74° 01' 42"
Sunlit
Object was in daylight at epoch
Visualization orbit readout
Latitude
Unknown
Longitude
Unknown
Altitude
Unknown
Speed
Unknown
Apparent Right ascension
Unknown
Apparent Declination
Unknown
Sunlit
N/A
Visualization observer readout
Local Sidereal Time
16:22:33
Azimuth
Unknown
Elevation
Unknown
Doppler factor
Unknown
Orbital elements
Apogee altitude
463.901 km
Perigee altitude
461.287 km
Semi-major axis
6,840.731 km
Eccentricity
0.00019
Inclination
97.2832°
RAAN
106.5204°
Arg. of periapsis
98.2256°
True anomaly
186.05859°
Mean anomaly
186.0609°
Eccentric anomaly
186.05974°
Mean motion
3.8361 °/min
Orbital period
93.85 mins
BSTAR
0.00022149
Loading maneuver chart data...
Computing Atmospheric mass density...
Loading historical data...
Loading historical data...
Loading historical data...
Loading historical data...
Loading historical data...
Loading historical data...
Loading historical data...

Documentation

Showing up to 5 results
|